Location: Unspecified
(0.0000°N, 0.0000°E)
Time: 23:46:39
(UTC+00:00)

GONETS M 08 (M18) - Pass Details

Date: 17 May 2026
Orbit: 1470 x 1518 km, 82.5° (Epoch: 7 June)

Event Time Altitude Azimuth Distance (km) Brightness Sun altitude
Rises 05:04:00 0° 165° (SSE) 4,638 ? -12.4°
Reaches altitude 10° 05:07:13 10° 156° (SSE) 3,662 ? -11.6°
Maximum altitude 05:15:05 36° 93° (E) 2,213 ? -9.7°
Drops below altitude 10° 05:22:56 10° 30° (NNE) 3,671 ? -7.9°
Sets 05:26:07 0° 22° (NNE) 4,651 ? -7.1°
